CTIM (52950 NORAD) Tracking and Keplerian Element Data

This shows tracking and keplerian element data for the satellite.

Feedback or suggestion? Click here.




ElementValue
Catalog52950
NameCTIM
Epoch Orbit1324
Epoch Day270.1003655
Epoch Year2022
RAAN6.2355
Inclination45.0078
Eccentricity0.0003549
Argument of Perigee341.6539
Mean Anonmoly18.4249
Mean Motion15.25195799
Decay Rate0.0001513
L11 52950U 22074G 22270.10036550 .00015130 00000+0 60182-3 0 9998
L22 52950 45.0078 6.2355 0003549 341.6539 18.4249 15.25195799 13241

Live tracking and technical data element details for CTIM (NORAD 52950). CTIM can be tracked NOW for your location showing map with azimuth and elevation plus other details from your city location.

Track the satellite on the map from your city or location and see movement details for azimuth, elevation, latitude, longitude, range, height, and movement on the map or in text.







IsCatalogInMostPopularTable: catalog: 52950, numindb: 7
Update: records affected: 1



GetName: 52950 CTIM

Hit Count: updated at: Thu, 06 Oct 2022 03:23:05 GMT